This is the latest recevied weather packets stored in our database for station/object KQ7A. If no packets are shown the sender has not sent any weather packets the latest 10 day(s).
| Time | Temp. | Humidity | Pressure | Rain* | Wind** | Luminosity | Snow |
|---|---|---|---|---|---|---|---|
| 1788217875 | 28.89° C | 20% | 1013.7 hPa | 0 mm | - | 428 W/m² | - |
| 1788217552 | 29.44° C | 20% | 1013.7 hPa | 0 mm | - | 470 W/m² | - |
| 1788217246 | 29.44° C | 21% | 1013.7 hPa | 0 mm | - | 486 W/m² | - |
| 1788216960 | 28.89° C | 21% | 1013.7 hPa | 0 mm | - | 507 W/m² | - |
| 1788216636 | 28.89° C | 19% | 1013.7 hPa | 0 mm | - | 522 W/m² | - |
| 1788216331 | 28.89° C | 19% | 1013.9 hPa | 0 mm | - | 531 W/m² | - |
| 1788216027 | 28.89° C | 20% | 1013.9 hPa | 0 mm | - | 539 W/m² | - |
| 1788215722 | 28.89° C | 21% | 1013.9 hPa | 0 mm | - | 551 W/m² | - |
| 1788215418 | 28.89° C | 20% | 1014.3 hPa | 0 mm | - | 561 W/m² | - |
| 1788215114 | 30° C | 21% | 1013.9 hPa | 0 mm | - | 576 W/m² | - |
| 1788214814 | 29.44° C | 28% | 1014.3 hPa | 0 mm | - | 580 W/m² | - |
| 1788214510 | 28.89° C | 23% | 1014.3 hPa | 0 mm | - | 592 W/m² | - |
| 1788214204 | 28.89° C | 23% | 1014.3 hPa | 0 mm | - | 594 W/m² | - |
| 1788213900 | 30° C | 22% | 1014.4 hPa | 0 mm | - | 589 W/m² | - |
| 1788213595 | 29.44° C | 25% | 1014.5 hPa | 0 mm | - | 600 W/m² | - |
| 1788213290 | 28.89° C | 22% | 1014.6 hPa | 0 mm | - | 608 W/m² | - |
| 1788212986 | 29.44° C | 25% | 1014.8 hPa | 0 mm | - | 604 W/m² | - |
| 1788212684 | 28.89° C | 22% | 1014.5 hPa | 0 mm | - | 603 W/m² | - |
| 1788212379 | 28.89° C | 24% | 1014.8 hPa | 0 mm | - | 617 W/m² | - |
| 1788212076 | 28.89° C | 27% | 1014.7 hPa | 0 mm | - | 628 W/m² | - |
| 1788211775 | 28.89° C | 25% | 1014.8 hPa | 0 mm | - | 627 W/m² | - |
| 1788211472 | 28.89° C | 23% | 1015 hPa | 0 mm | - | 639 W/m² | - |
| 1788211171 | 28.89° C | 23% | 1015.1 hPa | 0 mm | - | 642 W/m² | - |
| 1788210867 | 28.89° C | 22% | 1015 hPa | 0 mm | - | 644 W/m² | - |
| 1788210566 | 28.89° C | 26% | 1015 hPa | 0 mm | - | 641 W/m² | - |
* Rain latest hour (hover to see other rain measurements)
** Current wind speed in m/s (hover to see current wind gust speed)